Time,TemperatureF,DewpointF,PressureIn,WindDirection,WindDirectionDegrees,WindSpeedMPH,WindSpeedGustMPH,Humidity,HourlyPrecipIn,Conditions,Clouds,dailyrainin,SoftwareType,DateUTC
2013-05-26 00:00:00,47.7,46.9,29.59,WNW,294,7.0,12.0,97,0.06,,---,0.34,VWS V14.01,2013-05-26 04:00:00,
2013-05-26 00:01:00,47.7,46.9,29.59,NW,323,6.0,12.0,97,0.06,,---,0.34,VWS V14.01,2013-05-26 04:01:00,
2013-05-26 00:06:00,47.7,46.9,29.59,NNW,329,6.0,11.0,97,0.04,,---,0.00,VWS V14.01,2013-05-26 04:06:00,
2013-05-26 00:11:00,47.7,46.9,29.59,WNW,292,4.0,11.0,97,0.05,,---,0.01,VWS V14.01,2013-05-26 04:11:00,
2013-05-26 00:16:00,47.7,46.9,29.59,NW,304,6.0,11.0,97,0.05,,---,0.01,VWS V14.01,2013-05-26 04:16:00,
2013-05-26 00:21:00,47.7,46.9,29.59,NNE,15,2.0,11.0,97,0.05,,---,0.01,VWS V14.01,2013-05-26 04:21:00,
2013-05-26 00:26:00,47.7,46.9,29.59,WNW,285,5.0,11.0,97,0.05,,---,0.01,VWS V14.01,2013-05-26 04:26:00,
2013-05-26 00:30:00,47.8,47.0,29.58,North,355,5.0,14.0,97,0.05,,---,0.01,VWS V14.01,2013-05-26 04:30:00,
2013-05-26 00:31:00,47.8,47.0,29.58,North,349,4.0,14.0,97,0.05,,---,0.01,VWS V14.01,2013-05-26 04:31:00,
2013-05-26 00:36:00,47.8,47.0,29.58,NNE,13,4.0,8.0,97,0.03,,---,0.01,VWS V14.01,2013-05-26 04:36:00,
2013-05-26 00:41:00,47.7,46.9,29.58,SW,235,3.0,11.0,97,0.03,,---,0.01,VWS V14.01,2013-05-26 04:41:00,
2013-05-26 00:46:00,47.7,46.9,29.58,NW,309,2.0,11.0,97,0.03,,---,0.01,VWS V14.01,2013-05-26 04:46:00,
2013-05-26 00:51:00,47.7,46.9,29.58,WNW,303,6.0,12.0,97,0.03,,---,0.01,VWS V14.01,2013-05-26 04:51:00,
2013-05-26 00:56:00,47.7,46.9,29.58,NNW,328,1.0,12.0,97,0.03,,---,0.01,VWS V14.01,2013-05-26 04:56:00,
2013-05-26 01:00:00,47.7,46.9,29.58,WNW,300,2.0,12.0,97,0.03,,---,0.01,VWS V14.01,2013-05-26 05:00:00,
2013-05-26 01:01:00,47.7,46.9,29.58,WNW,286,0.0,12.0,97,0.03,,---,0.01,VWS V14.01,2013-05-26 05:01:00,
2013-05-26 01:06:00,47.7,46.9,29.58,West,271,3.0,9.0,97,0.01,,---,0.01,VWS V14.01,2013-05-26 05:06:00,
2013-05-26 01:11:00,47.8,47.0,29.57,West,275,0.0,11.0,97,0.01,,---,0.01,VWS V14.01,2013-05-26 05:11:00,
2013-05-26 01:16:00,47.7,46.9,29.57,WSW,248,2.0,11.0,97,0.01,,---,0.01,VWS V14.01,2013-05-26 05:16:00,
2013-05-26 01:21:00,47.8,47.0,29.57,WNW,294,1.0,11.0,97,0.01,,---,0.01,VWS V14.01,2013-05-26 05:21:00,
2013-05-26 01:26:00,47.8,47.0,29.57,WNW,292,0.0,11.0,97,0.01,,---,0.01,VWS V14.01,2013-05-26 05:26:00,
2013-05-26 01:30:00,47.8,47.0,29.57,NW,323,1.0,11.0,97,0.01,,---,0.01,VWS V14.01,2013-05-26 05:30:00,
2013-05-26 01:31:00,47.8,47.0,29.57,West,259,6.0,11.0,97,0.01,,---,0.01,VWS V14.01,2013-05-26 05:31:00,
2013-05-26 01:36:00,47.7,46.9,29.57,WNW,297,3.0,8.0,97,0.00,,---,0.01,VWS V14.01,2013-05-26 05:36:00,
2013-05-26 01:41:00,47.7,46.9,29.57,West,263,2.0,8.0,97,0.00,,---,0.01,VWS V14.01,2013-05-26 05:41:00,
2013-05-26 01:46:00,47.7,46.9,29.56,WSW,239,2.0,8.0,97,0.00,,---,0.01,VWS V14.01,2013-05-26 05:46:00,
2013-05-26 01:51:00,47.7,46.9,29.56,NNW,348,0.0,9.0,97,0.00,,---,0.01,VWS V14.01,2013-05-26 05:51:00,
2013-05-26 01:56:00,47.7,46.9,29.56,WNW,289,2.0,9.0,97,0.00,,---,0.01,VWS V14.01,2013-05-26 05:56:00,
2013-05-26 02:00:00,47.7,46.9,29.55,NW,311,2.0,9.0,97,0.00,,---,0.01,VWS V14.01,2013-05-26 06:00:00,
2013-05-26 02:01:00,47.7,46.9,29.55,WNW,283,3.0,9.0,97,0.00,,---,0.01,VWS V14.01,2013-05-26 06:01:00,
2013-05-26 02:06:00,47.7,46.9,29.55,West,272,0.0,3.0,97,0.00,,---,0.01,VWS V14.01,2013-05-26 06:06:00,
2013-05-26 02:11:00,47.7,46.9,29.55,ENE,57,1.0,8.0,97,0.00,,---,0.01,VWS V14.01,2013-05-26 06:11:00,
2013-05-26 02:16:00,47.7,46.9,29.55,NNW,340,2.0,8.0,97,0.01,,---,0.02,VWS V14.01,2013-05-26 06:16:00,
2013-05-26 02:21:00,47.7,46.9,29.55,WNW,296,2.0,8.0,97,0.01,,---,0.02,VWS V14.01,2013-05-26 06:21:00,
2013-05-26 02:26:00,47.6,46.8,29.54,West,266,4.0,9.0,97,0.02,,---,0.03,VWS V14.01,2013-05-26 06:26:00,
2013-05-26 02:30:00,47.7,46.9,29.54,NW,304,3.0,9.0,97,0.03,,---,0.04,VWS V14.01,2013-05-26 06:30:00,
2013-05-26 02:31:00,47.6,46.8,29.54,WNW,301,1.0,9.0,97,0.02,,---,0.03,VWS V14.01,2013-05-26 06:31:00,
2013-05-26 02:36:00,47.6,46.8,29.54,WSW,253,3.0,4.0,97,0.03,,---,0.04,VWS V14.01,2013-05-26 06:36:00,
2013-05-26 02:41:00,47.6,46.8,29.54,West,272,2.0,9.0,97,0.04,,---,0.05,VWS V14.01,2013-05-26 06:41:00,
2013-05-26 02:46:00,47.6,46.8,29.54,WSW,246,4.0,9.0,97,0.04,,---,0.05,VWS V14.01,2013-05-26 06:46:00,
2013-05-26 02:51:00,47.6,46.8,29.54,West,281,8.0,9.0,97,0.05,,---,0.06,VWS V14.01,2013-05-26 06:51:00,
2013-05-26 02:56:00,47.5,46.7,29.53,WNW,302,1.0,9.0,97,0.06,,---,0.07,VWS V14.01,2013-05-26 06:56:00,
2013-05-26 03:00:00,47.4,46.6,29.53,West,273,6.0,9.0,97,0.07,,---,0.08,VWS V14.01,2013-05-26 07:00:00,
2013-05-26 03:01:00,47.4,46.6,29.53,WSW,238,2.0,9.0,97,0.06,,---,0.07,VWS V14.01,2013-05-26 07:01:00,
2013-05-26 03:06:00,47.4,46.6,29.53,WNW,298,3.0,6.0,97,0.07,,---,0.08,VWS V14.01,2013-05-26 07:06:00,
2013-05-26 03:11:00,47.4,46.6,29.53,WNW,286,2.0,8.0,97,0.08,,---,0.09,VWS V14.01,2013-05-26 07:11:00,
2013-05-26 03:16:00,47.4,46.6,29.53,West,280,3.0,8.0,97,0.08,,---,0.09,VWS V14.01,2013-05-26 07:16:00,
2013-05-26 03:30:00,47.4,46.9,29.52,WNW,292,3.0,12.0,98,0.11,,---,0.12,VWS V14.01,2013-05-26 07:30:00,
2013-05-26 04:00:00,47.3,46.8,29.52,West,270,3.0,12.0,98,0.10,,---,0.14,VWS V14.01,2013-05-26 08:00:00,
2013-05-26 04:30:00,47.3,46.5,29.52,NW,315,2.0,11.0,97,0.09,,---,0.17,VWS V14.01,2013-05-26 08:30:00,
2013-05-26 05:00:00,46.7,45.9,29.53,North,0,1.0,6.0,97,0.05,,---,0.17,VWS V14.01,2013-05-26 09:00:00,
2013-05-26 05:30:00,46.1,45.6,29.53,NW,315,1.0,4.0,98,0.03,,---,0.17,VWS V14.01,2013-05-26 09:30:00,
2013-05-26 06:00:00,46.0,45.2,29.54,NW,315,1.0,7.0,97,0.01,,---,0.18,VWS V14.01,2013-05-26 10:00:00,
2013-05-26 06:30:00,45.6,44.8,29.55,North,0,1.0,5.0,97,0.01,,---,0.18,VWS V14.01,2013-05-26 10:30:00,
2013-05-26 07:00:00,45.5,45.0,29.55,North,0,1.0,5.0,98,0.02,,---,0.19,VWS V14.01,2013-05-26 11:00:00,
2013-05-26 07:30:00,45.5,45.0,29.56,NNE,22,1.0,5.0,98,0.03,,---,0.21,VWS V14.01,2013-05-26 11:30:00,
2013-05-26 08:00:00,45.7,45.2,29.57,NNW,338,1.0,4.0,98,0.03,,---,0.21,VWS V14.01,2013-05-26 12:00:00,
2013-05-26 08:30:00,45.9,45.4,29.58,West,270,1.0,4.0,98,0.03,,---,0.22,VWS V14.01,2013-05-26 12:30:00,
2013-05-26 09:00:00,46.1,45.6,29.58,NW,315,1.0,5.0,98,0.03,,---,0.24,VWS V14.01,2013-05-26 13:00:00,
2013-05-26 09:30:00,46.5,46.0,29.59,NW,315,2.0,6.0,98,0.04,,---,0.25,VWS V14.01,2013-05-26 13:30:00,
2013-05-26 10:00:00,47.7,46.9,29.59,WNW,292,2.0,6.0,97,0.04,,---,0.26,VWS V14.01,2013-05-26 14:00:00,
2013-05-26 10:30:00,48.2,47.4,29.60,West,270,2.0,7.0,97,0.02,,---,0.26,VWS V14.01,2013-05-26 14:30:00,
2013-05-26 11:00:00,49.3,48.5,29.60,West,270,2.0,6.0,97,0.01,,---,0.26,VWS V14.01,2013-05-26 15:00:00,
2013-05-26 11:30:00,50.5,48.8,29.61,West,270,1.0,6.0,94,0.00,,---,0.26,VWS V14.01,2013-05-26 15:30:00,
2013-05-26 12:00:00,49.7,48.6,29.61,WSW,248,1.0,5.0,96,0.01,,---,0.27,VWS V14.01,2013-05-26 16:00:00,
2013-05-26 12:30:00,50.0,48.6,29.62,West,270,1.0,4.0,95,0.04,,---,0.30,VWS V14.01,2013-05-26 16:30:00,
2013-05-26 13:00:00,49.8,48.7,29.62,South,180,1.0,5.0,96,0.09,,---,0.35,VWS V14.01,2013-05-26 17:00:00,
2013-05-26 13:30:00,49.8,48.7,29.63,SSW,202,5.0,20.0,96,0.14,,---,0.41,VWS V14.01,2013-05-26 17:30:00,
2013-05-26 14:00:00,49.3,47.4,29.65,SSW,202,6.0,17.0,93,0.12,,---,0.42,VWS V14.01,2013-05-26 18:00:00,
2013-05-26 14:30:00,49.5,47.6,29.66,SSW,202,7.0,16.0,93,0.07,,---,0.42,VWS V14.01,2013-05-26 18:30:00,
2013-05-26 15:00:00,48.8,47.4,29.67,SSW,202,6.0,16.0,95,0.02,,---,0.43,VWS V14.01,2013-05-26 19:00:00,
2013-05-26 15:30:00,48.3,46.9,29.69,SSW,202,6.0,21.0,95,0.03,,---,0.45,VWS V14.01,2013-05-26 19:30:00,
2013-05-26 16:00:00,49.7,48.3,29.69,South,180,5.0,17.0,95,0.04,,---,0.46,VWS V14.01,2013-05-26 20:00:00,
2013-05-26 16:30:00,51.4,48.9,29.71,SSW,202,6.0,15.0,91,0.04,,---,0.47,VWS V14.01,2013-05-26 20:30:00,
2013-05-26 17:00:00,53.1,49.3,29.72,SSW,202,7.0,18.0,87,0.02,,---,0.47,VWS V14.01,2013-05-26 21:00:00,
2013-05-26 17:30:00,52.1,49.0,29.73,SSW,202,4.0,11.0,89,0.01,,---,0.47,VWS V14.01,2013-05-26 21:30:00,
2013-05-26 18:00:00,53.0,47.0,29.74,SSW,202,5.0,15.0,80,0.00,,---,0.47,VWS V14.01,2013-05-26 22:00:00,
2013-05-26 18:30:00,53.5,46.1,29.75,South,180,4.0,12.0,76,0.00,,---,0.47,VWS V14.01,2013-05-26 22:30:00,
2013-05-26 19:00:00,54.3,44.7,29.76,SSW,202,7.0,21.0,70,0.00,,---,0.47,VWS V14.01,2013-05-26 23:00:00,
2013-05-26 19:30:00,52.1,43.4,29.78,SSW,202,7.0,16.0,72,0.00,,---,0.47,VWS V14.01,2013-05-26 23:30:00,
2013-05-26 20:00:00,49.8,42.9,29.79,SSW,202,5.0,12.0,77,0.00,,---,0.47,VWS V14.01,2013-05-27 00:00:00,
2013-05-26 20:30:00,48.5,42.0,29.81,SSW,202,5.0,12.0,78,0.00,,---,0.47,VWS V14.01,2013-05-27 00:30:00,
2013-05-26 21:00:00,47.9,41.7,29.83,SSW,202,5.0,17.0,79,0.00,,---,0.47,VWS V14.01,2013-05-27 01:00:00,
2013-05-26 21:30:00,47.3,41.1,29.84,South,180,4.0,10.0,79,0.00,,---,0.47,VWS V14.01,2013-05-27 01:30:00,
2013-05-26 22:00:00,47.1,41.9,29.85,South,180,3.0,7.0,82,0.00,,---,0.47,VWS V14.01,2013-05-27 02:00:00,
2013-05-26 22:30:00,46.0,42.0,29.86,SSE,158,2.0,7.0,86,0.00,,---,0.47,VWS V14.01,2013-05-27 02:30:00,
2013-05-26 23:00:00,45.1,41.5,29.85,SE,135,2.0,6.0,87,0.00,,---,0.47,VWS V14.01,2013-05-27 03:00:00,
2013-05-26 23:30:00,44.6,41.3,29.85,South,180,2.0,6.0,88,0.00,,---,0.47,VWS V14.01,2013-05-27 03:30:00,